| time (UTC) | temp F | wind direction | speed knots | gust knots | rain 1hr in | rain 24hr in | rain mn in | humidity % | barometer mb |
| 20260504214503 | 73 | 360 | 3.5 | 8.7 | 0.00 | 0.00 | 0.00 | 41 | 1009.3 |
| 20260504213604 | 73 | 360 | 4.3 | 9.6 | 0.00 | 0.00 | 0.00 | 38 | 1009.2 |
| 20260504212704 | 73 | 360 | 3.5 | 8.7 | 0.00 | 0.00 | 0.00 | 37 | 1009.2 |
| 20260504212018 | 73 | 360 | 3.5 | 8.7 | 0.00 | 0.00 | 0.00 | 41 | 1009.2 |
| 20260504210904 | 73 | 360 | 3.5 | 9.6 | 0.00 | 0.00 | 0.00 | 37 | 1009.2 |
| 20260504210003 | 73 | 360 | 3.5 | 8.7 | 0.00 | 0.00 | 0.00 | 37 | 1009.3 |
| 20260504205404 | 73 | 360 | 3.5 | 10.4 | 0.00 | 0.00 | 0.00 | 38 | 1009.3 |
| 20260504204722 | 73 | 360 | 3.5 | 11.3 | 0.00 | 0.00 | 0.00 | 40 | 1009.4 |
| 20260504203604 | 74 | 360 | 3.5 | 11.3 | 0.00 | 0.00 | 0.00 | 39 | 1009.5 |
| 20260504202703 | 74 | 360 | 3.5 | 9.6 | 0.00 | 0.00 | 0.00 | 37 | 1009.5 |
| 20260504201803 | 73 | 360 | 4.3 | 10.4 | 0.00 | 0.00 | 0.00 | 37 | 1009.6 |
| 20260504201121 | 73 | 360 | 4.3 | 11.3 | 0.00 | 0.00 | 0.00 | 35 | 1009.8 |
| 20260504200219 | 74 | 360 | 3.5 | 9.6 | 0.00 | 0.00 | 0.00 | 41 | 1009.8 |
| 20260504195403 | 74 | 360 | 2.6 | 7.8 | 0.00 | 0.00 | 0.00 | 40 | 1009.9 |
| 20260504194503 | 73 | 360 | 3.5 | 10.4 | 0.00 | 0.00 | 0.00 | 37 | 1009.9 |
| 20260504193820 | 73 | 360 | 5.2 | 10.4 | 0.00 | 0.00 | 0.00 | 34 | 1009.9 |
| 20260504192704 | 73 | 360 | 4.3 | 9.6 | 0.00 | 0.00 | 0.00 | 36 | 1010.1 |
| 20260504191803 | 73 | 360 | 4.3 | 13.0 | 0.00 | 0.00 | 0.00 | 37 | 1010.3 |
| 20260504190903 | 73 | 360 | 4.3 | 12.2 | 0.00 | 0.00 | 0.00 | 39 | 1010.4 |
| 20260504190003 | 73 | 360 | 3.5 | 9.6 | 0.00 | 0.00 | 0.00 | 37 | 1010.5 |
| 20260504185404 | 73 | 360 | 4.3 | 9.6 | 0.00 | 0.00 | 0.00 | 37 | 1010.6 |
| 20260504184503 | 72 | 360 | 5.2 | 12.2 | 0.00 | 0.00 | 0.00 | 37 | 1010.6 |
| 20260504183603 | 72 | 360 | 5.2 | 10.4 | 0.00 | 0.00 | 0.00 | 37 | 1010.6 |
| 20260504182704 | 73 | 360 | 4.3 | 10.4 | 0.00 | 0.00 | 0.00 | 37 | 1010.6 |
| 20260504181803 | 72 | 360 | 4.3 | 13.0 | 0.00 | 0.00 | 0.00 | 38 | 1010.8 |
| 20260504181118 | 72 | 360 | 4.3 | 13.0 | 0.00 | 0.00 | 0.00 | 39 | 1010.9 |
| 20260504180003 | 72 | 360 | 4.3 | 9.6 | 0.00 | 0.00 | 0.00 | 38 | 1011.1 |
| 20260504175404 | 72 | 360 | 4.3 | 11.3 | 0.00 | 0.00 | 0.00 | 35 | 1011.3 |
| 20260504174719 | 72 | 360 | 5.2 | 12.2 | 0.00 | 0.00 | 0.00 | 39 | 1011.2 |
| 20260504173603 | 72 | 360 | 4.3 | 9.6 | 0.00 | 0.00 | 0.00 | 37 | 1011.5 |
| 20260504172918 | 72 | 360 | 5.2 | 15.6 | 0.00 | 0.00 | 0.00 | 40 | 1011.5 |
| 20260504172021 | 71 | 360 | 4.3 | 15.6 | 0.00 | 0.00 | 0.00 | 40 | 1011.5 |
| 20260504170904 | 71 | 360 | 4.3 | 9.6 | 0.00 | 0.00 | 0.00 | 39 | 1011.9 |
| 20260504150903 | 68 | 360 | 3.5 | 8.7 | 0.00 | 0.00 | 0.00 | 52 | 1013.1 |
| 20260504140904 | 64 | 360 | 3.5 | 9.6 | 0.00 | 0.00 | 0.00 | 58 | 1013.3 |
| 20260504130218 | 59 | 360 | 6.1 | 14.8 | 0.00 | 0.00 | 0.00 | 72 | 1013.9 |
| 20260504100220 | 49 | 360 | 0.9 | 3.5 | 0.00 | 0.00 | 0.00 | 83 | 1014.4 |
| 20260504081803 | 49 | 360 | 0.9 | 4.3 | 0.00 | 0.00 | 0.00 | 75 | 1014.5 |
| 20260504080903 | 50 | 360 | 1.7 | 5.2 | 0.00 | 0.00 | 0.00 | 74 | 1014.6 |
| 20260504050004 | 42 | 360 | 0.0 | 3.5 | 0.00 | 0.00 | 0.00 | 80 | 1014.2 |
| 20260504045403 | 42 | 360 | 0.0 | 3.5 | 0.00 | 0.00 | 0.00 | 81 | 1014.2 |
| 20260504044504 | 42 | 360 | 0.0 | 0.9 | 0.00 | 0.00 | 0.00 | 81 | 1014.2 |
| 20260504043603 | 42 | 0 | 0.0 | 0.0 | 0.00 | 0.00 | 0.00 | 81 | 1014.2 |
| 20260504042704 | 42 | 0 | 0.0 | 0.0 | 0.00 | 0.00 | 0.00 | 81 | 1014.1 |
| 20260504041804 | 42 | 0 | 0.0 | 0.0 | 0.00 | 0.00 | 0.00 | 80 | 1014.2 |
| 20260504041121 | 42 | 0 | 0.0 | 0.0 | 0.00 | 0.00 | 0.00 | 79 | 1014.1 |
| 20260504040218 | 42 | 0 | 0.0 | 0.0 | 0.00 | 0.00 | 0.00 | 79 | 1014.0 |
| 20260504035404 | 42 | 0 | 0.0 | 0.0 | 0.00 | 0.00 | 0.00 | 78 | 1013.9 |
| 20260504034503 | 42 | 0 | 0.0 | 0.0 | 0.00 | 0.00 | 0.00 | 78 | 1013.8 |
| 20260504033604 | 43 | 0 | 0.0 | 0.0 | 0.00 | 0.00 | 0.00 | 78 | 1013.7 |
| 20260504032703 | 43 | 360 | 0.0 | 0.9 | 0.00 | 0.00 | 0.00 | 77 | 1013.7 |
| 20260504031804 | 43 | 360 | 0.0 | 0.9 | 0.00 | 0.00 | 0.00 | 77 | 1013.6 |
| 20260504030903 | 43 | 360 | 0.0 | 0.9 | 0.00 | 0.00 | 0.00 | 77 | 1013.6 |
| 20260504030219 | 43 | 360 | 0.0 | 0.9 | 0.00 | 0.00 | 0.00 | 76 | 1013.6 |
| 20260504025404 | 44 | 360 | 0.0 | 0.9 | 0.00 | 0.00 | 0.00 | 75 | 1013.6 |
| 20260504024718 | 44 | 360 | 0.0 | 1.7 | 0.00 | 0.00 | 0.00 | 75 | 1013.6 |
| 20260504023603 | 44 | 0 | 0.0 | 0.0 | 0.00 | 0.00 | 0.00 | 73 | 1013.5 |
| 20260504022703 | 44 | 360 | 0.0 | 0.9 | 0.00 | 0.00 | 0.00 | 72 | 1013.6 |
| 20260504022020 | 44 | 360 | 0.0 | 0.9 | 0.00 | 0.00 | 0.00 | 72 | 1013.6 |
| 20260504020903 | 45 | 0 | 0.0 | 0.0 | 0.00 | 0.00 | 0.00 | 70 | 1013.7 |
| 20260504020220 | 45 | 360 | 0.0 | 0.9 | 0.00 | 0.00 | 0.00 | 69 | 1013.7 |
| 20260504015403 | 45 | 0 | 0.0 | 0.0 | 0.00 | 0.00 | 0.00 | 68 | 1013.6 |
| 20260504014504 | 45 | 360 | 0.0 | 0.9 | 0.00 | 0.00 | 0.00 | 67 | 1013.6 |
| 20260504013604 | 46 | 0 | 0.0 | 0.0 | 0.00 | 0.00 | 0.00 | 65 | 1013.5 |
| 20260504012704 | 46 | 0 | 0.0 | 0.0 | 0.00 | 0.00 | 0.00 | 63 | 1013.3 |
| 20260504011803 | 47 | 0 | 0.0 | 0.0 | 0.00 | 0.00 | 0.00 | 62 | 1013.2 |
| 20260504010904 | 47 | 360 | 0.0 | 0.9 | 0.00 | 0.00 | 0.00 | 61 | 1013.1 |
| 20260504010003 | 48 | 360 | 0.0 | 0.9 | 0.00 | 0.00 | 0.00 | 60 | 1013.1 |
| 20260504005403 | 48 | 0 | 0.0 | 0.0 | 0.00 | 0.00 | 0.00 | 57 | 1013.0 |
| 20260504004504 | 49 | 0 | 0.0 | 0.0 | 0.00 | 0.00 | 0.00 | 55 | 1012.9 |
| 20260504003604 | 50 | 0 | 0.0 | 0.0 | 0.00 | 0.00 | 0.00 | 53 | 1012.8 |
| 20260504002704 | 51 | 0 | 0.0 | 0.0 | 0.00 | 0.00 | 0.00 | 53 | 1012.5 |
| 20260504001804 | 52 | 0 | 0.0 | 0.0 | 0.00 | 0.00 | 0.00 | 51 | 1012.5 |
| 20260504000903 | 53 | 0 | 0.0 | 0.0 | 0.00 | 0.00 | 0.00 | 49 | 1012.4 |
| 20260504000003 | 54 | 360 | 0.9 | 2.6 | 0.00 | 0.00 | 0.00 | 47 | 1012.3 |
| 20260503235618 | 55 | 360 | 0.9 | 4.3 | 0.00 | 0.00 | 0.00 | 46 | 1012.3 |
| 20260503234504 | 56 | 360 | 0.9 | 3.5 | 0.00 | 0.00 | 0.00 | 44 | 1012.3 |
| 20260503233604 | 57 | 360 | 1.7 | 4.3 | 0.00 | 0.00 | 0.00 | 40 | 1012.2 |
| 20260503232920 | 57 | 360 | 2.6 | 7.8 | 0.00 | 0.00 | 0.00 | 39 | 1012.2 |
| 20260503232017 | 58 | 360 | 2.6 | 7.8 | 0.00 | 0.00 | 0.00 | 37 | 1012.2 |
| 20260503230904 | 59 | 360 | 2.6 | 7.8 | 0.00 | 0.00 | 0.00 | 35 | 1012.1 |
| 20260503230003 | 59 | 360 | 3.5 | 8.7 | 0.00 | 0.00 | 0.00 | 35 | 1012.0 |
| 20260503225403 | 60 | 360 | 3.5 | 9.6 | 0.00 | 0.00 | 0.00 | 35 | 1012.0 |
| 20260503224503 | 61 | 360 | 4.3 | 10.4 | 0.00 | 0.00 | 0.00 | 34 | 1012.0 |
| 20260503223604 | 61 | 360 | 5.2 | 13.0 | 0.00 | 0.00 | 0.00 | 33 | 1012.0 |
| 20260503222703 | 60 | 360 | 4.3 | 13.0 | 0.00 | 0.00 | 0.00 | 33 | 1012.0 |
| 20260503222017 | 60 | 360 | 5.2 | 11.3 | 0.00 | 0.00 | 0.00 | 35 | 1012.0 |
| 20260503220903 | 61 | 360 | 4.3 | 16.5 | 0.00 | 0.00 | 0.00 | 34 | 1012.0 |
| 20260503220003 | 61 | 360 | 6.1 | 13.0 | 0.00 | 0.00 | 0.00 | 36 | 1012.0 |
| 20260503215403 | 61 | 360 | 5.2 | 13.0 | 0.00 | 0.00 | 0.00 | 35 | 1012.0 |